Weather History for KMYR - October, 2012

Change the Weather History Date:

Tuesday, October 9, 2012

  Actual Average Record
Temperature  
Mean Temperature 56 °F -  
Max Temperature 60 °F 74 °F 89 °F (2007)
Min Temperature 53 °F 56 °F 41 °F (2000)
Degree Days  
Heating Degree Days 8    
Growing Degree Days 6 (Base 50)    
Moisture  
Dew Point 47 °F    
Average Humidity 75    
Maximum Humidity 100    
Minimum Humidity 67    
Precipitation  
Precipitation 0.01 in - - ()
Sea Level Pressure  
Sea Level Pressure 30.08 in    
Wind  
Wind Speed 11 mph (NNW)    
Max Wind Speed 16 mph    
Max Gust Speed 17 mph    
Visibility 9 miles    
Events      
Averages and records for this station are not official NWS values.
T = Trace of Precipitation, MM = Missing Value Source: NWS Daily Summary

Daily Weather History Graph

Daily Weather History Graph

Search for Another Location

Airport or City:

Trip Planner

Search our weather history database for the weather conditions in past years. The results will help you decide how hot, cold, wet, or windy it might be!

Date:

Astronomy

Oct. 09, 2012 Rise Set
Actual Time 7:16 AM EDT 6:48 PM EDT
Civil Twilight 6:51 AM EDT 7:13 PM EDT
Nautical Twilight 6:22 AM EDT 7:42 PM EDT
Astronomical Twilight 5:53 AM EDT 8:11 PM EDT
Moon 1:07 AM EDT (10/9) 2:59 PM EDT (10/9)
Length of Visible Light 12h 22m
Length of Day
11h 32m
Last Quarter, 37% of the Moon is Illuminated
Oct 9
Last Quarter
Oct 15
New
Oct 21
First Quarter
Oct 29
Full
Nov 6
Last Quarter

Hourly Weather History & Observations

Time (EDT) Temp. Dew Point Humidity Pressure Visibility Wind Dir Wind Speed Gust Speed Precip Events Conditions
12:15 AM 53.6 °F 42.8 °F 67% 30.08 in 5.0 mi NNW 9.2 mph - N/A   Overcast
12:35 AM 53.6 °F 42.8 °F 67% 30.08 in 5.0 mi NNW 10.4 mph - N/A   Overcast
12:55 AM 53.6 °F 42.8 °F 67% 30.07 in 5.0 mi NNW 12.7 mph 16.1 mph N/A   Overcast
1:15 AM 53.6 °F 44.6 °F 72% 30.08 in 6.0 mi NNW 11.5 mph - N/A   Overcast
1:35 AM 53.6 °F 44.6 °F 72% 30.07 in 10.0 mi NNW 12.7 mph - N/A   Overcast
1:55 AM 53.6 °F 44.6 °F 72% 30.07 in 10.0 mi NNW 10.4 mph - N/A   Overcast
2:15 AM 53.6 °F 44.6 °F 72% 30.07 in 10.0 mi NNW 11.5 mph 17.3 mph N/A   Overcast
2:35 AM 53.6 °F 44.6 °F 72% 30.06 in 10.0 mi NNW 13.8 mph - N/A   Overcast
2:55 AM 53.6 °F 44.6 °F 72% 30.06 in 10.0 mi NNW 8.1 mph - N/A   Overcast
3:15 AM 53.6 °F 44.6 °F 72% 30.05 in 10.0 mi NNW 13.8 mph 17.3 mph N/A   Overcast
3:35 AM 53.6 °F 44.6 °F 72% 30.06 in 10.0 mi NNW 8.1 mph - N/A   Overcast
3:55 AM 53.6 °F 44.6 °F 72% 30.05 in 10.0 mi NNW 9.2 mph - N/A   Overcast
4:15 AM 53.6 °F 44.6 °F 72% 30.05 in 10.0 mi NNW 9.2 mph - N/A   Overcast
4:35 AM 53.6 °F 44.6 °F 72% 30.06 in 10.0 mi NNW 11.5 mph - N/A   Overcast
4:55 AM 53.6 °F 44.6 °F 72% 30.06 in 9.0 mi NNW 12.7 mph - N/A   Overcast
5:15 AM 53.6 °F 44.6 °F 72% 30.07 in 8.0 mi NNW 9.2 mph - N/A   Overcast
5:35 AM 53.6 °F 42.8 °F 67% 30.07 in 5.0 mi NNW 9.2 mph - 0.01 in   Overcast
5:50 AM 53.6 °F 42.8 °F 67% 30.07 in 6.0 mi NNW 13.8 mph - N/A   Overcast
6:45 AM 53.6 °F 42.8 °F 67% 30.08 in 4.0 mi North 16.1 mph - N/A   Overcast
8:50 AM 53.6 °F 53.6 °F 100% 30.11 in 3.0 mi NNW 16.1 mph - N/A   Overcast
10:53 AM 55.4 °F 51.8 °F 88% 30.12 in 10.0 mi NNW 16.1 mph - N/A   Overcast
11:50 AM 55.4 °F 51.8 °F 88% 30.11 in 10.0 mi NNW 15.0 mph - N/A   Overcast
12:45 PM 59.0 °F 51.8 °F 77% 30.10 in 10.0 mi NNW 11.5 mph - N/A   Overcast
1:09 PM 60.8 °F 51.8 °F 72% 30.10 in 10.0 mi NNW 11.5 mph - N/A   Overcast
1:50 PM 60.8 °F 53.6 °F 77% 30.09 in 10.0 mi NNW 11.5 mph - N/A   Overcast
2:45 PM 60.8 °F 53.6 °F 77% 30.08 in 10.0 mi North 11.5 mph - N/A   Overcast
3:50 PM 60.8 °F 51.8 °F 72% 30.08 in 10.0 mi NNW 11.5 mph - N/A   Overcast
4:50 PM 59.0 °F 51.8 °F 77% 30.08 in 10.0 mi NNW 11.5 mph - N/A   Overcast
5:45 PM 57.2 °F 51.8 °F 82% 30.08 in 10.0 mi North 8.1 mph - N/A   Overcast
6:45 PM 57.2 °F 51.8 °F 82% 30.08 in 10.0 mi North 11.5 mph - N/A   Overcast
7:45 PM 57.2 °F 51.8 °F 82% 30.09 in 10.0 mi North 12.7 mph - N/A   Overcast
8:45 PM 55.4 °F 50.0 °F 82% 30.10 in 8.0 mi North 9.2 mph - N/A   Overcast
9:45 PM 55.4 °F 50.0 °F 82% 30.12 in 8.0 mi North 8.1 mph - N/A   Overcast
11:15 PM 55.4 °F 46.4 °F 72% 30.13 in 10.0 mi Calm Calm - N/A   Overcast
11:35 PM 55.4 °F 46.4 °F 72% 30.11 in 10.0 mi Calm Calm - N/A   Overcast
11:55 PM 55.4 °F 46.4 °F 72% 30.11 in 10.0 mi NW 3.5 mph - N/A   Overcast